Corning, AR

8:58 PM CST on December 04, 2016 (GMT -0600)
Corning

Weather History for K4M9 - January, 2014

Change the Weather History Date:

Monday, January 13, 2014

  Actual Average (KARG) Record (KARG)
Temperature  
Mean Temperature 50 °F -  
Max Temperature 62 °F 42 °F 66 °F (2005)
Min Temperature 37 °F 27 °F 5 °F (1997)
Degree Days  
Heating Degree Days 16    
Moisture  
Dew Point 39 °F    
Average Humidity 65    
Maximum Humidity 88    
Minimum Humidity 39    
Precipitation  
Precipitation 0.00 in - - ()
Sea Level Pressure  
Sea Level Pressure 29.81 in    
Wind  
Wind Speed 16 mph (WSW)    
Max Wind Speed 23 mph    
Max Gust Speed 29 mph    
Visibility 10 miles    
Events      
Averages and records for this station are not official NWS values.
T = Trace of Precipitation, MM = Missing Value Source: NWS Daily Summary

Daily Weather History Graph

Daily Weather History Graph

Search for Another Location

Airport or City:

Trip Planner

Search our weather history database for the weather conditions in past years. The results will help you decide how hot, cold, wet, or windy it might be!

Date:

Astronomy

Jan. 13, 2014 Rise Set
Actual Time 7:13 AM CST 5:09 PM CST
Civil Twilight 6:45 AM CST 5:37 PM CST
Nautical Twilight 6:14 AM CST 6:08 PM CST
Astronomical Twilight 5:43 AM CST 6:39 PM CST
Moon 3:23 PM CST (1/13) 5:03 AM CST (1/13)
Length of Visible Light 10h 51m
Length of Day
9h 55m
Waxing Gibbous, 95% of the Moon is Illuminated
Jan 13
Waxing Gibbous
Jan 15
Full
Jan 23
Last Quarter
Jan 30
New
Feb 6
First Quarter

Hourly Weather History & Observations

Time (CST) Temp. Windchill Dew Point Humidity Pressure Visibility Wind Dir Wind Speed Gust Speed Precip Events Conditions
12:15 AM 53.6 °F - 37.4 °F 54% 29.78 in 10.0 mi South 18.4 mph 24.2 mph N/A   Clear
12:35 AM 53.6 °F - 37.4 °F 54% 29.78 in 10.0 mi South 18.4 mph 28.8 mph N/A   Clear
12:55 AM 51.8 °F - 37.4 °F 58% 29.78 in 10.0 mi South 19.6 mph 25.3 mph N/A   Partly Cloudy
1:15 AM 50.0 °F - 37.4 °F 62% 29.77 in 10.0 mi South 21.9 mph 28.8 mph N/A   Clear
1:35 AM 50.0 °F - 37.4 °F 62% 29.78 in 10.0 mi South 17.3 mph 25.3 mph N/A   Clear
1:55 AM 50.0 °F - 37.4 °F 62% 29.80 in 10.0 mi South 12.7 mph - N/A   Clear
2:15 AM 50.0 °F - 39.2 °F 66% 29.79 in 10.0 mi South 16.1 mph 20.7 mph N/A   Clear
2:35 AM 50.0 °F - 39.2 °F 66% 29.79 in 10.0 mi South 16.1 mph 21.9 mph N/A   Clear
2:55 AM 50.0 °F - 39.2 °F 66% 29.79 in 10.0 mi South 17.3 mph - N/A   Clear
3:15 AM 51.8 °F - 41.0 °F 67% 29.79 in 10.0 mi South 17.3 mph 24.2 mph N/A   Clear
3:35 AM 51.8 °F - 41.0 °F 67% 29.78 in 10.0 mi South 23.0 mph 28.8 mph N/A   Clear
3:55 AM 51.8 °F - 41.0 °F 67% 29.77 in 10.0 mi South 18.4 mph 26.5 mph N/A   Clear
4:15 AM 50.0 °F - 41.0 °F 71% 29.76 in 10.0 mi South 19.6 mph 27.6 mph N/A   Clear
4:35 AM 50.0 °F - 41.0 °F 71% 29.76 in 10.0 mi South 20.7 mph 26.5 mph N/A   Clear
4:55 AM 50.0 °F - 41.0 °F 71% 29.76 in 10.0 mi South 18.4 mph 25.3 mph N/A   Clear
5:15 AM 50.0 °F - 41.0 °F 71% 29.77 in 10.0 mi South 17.3 mph 25.3 mph N/A   Partly Cloudy
5:35 AM 50.0 °F - 41.0 °F 71% 29.76 in 10.0 mi South 17.3 mph 25.3 mph N/A   Mostly Cloudy
5:55 AM 50.0 °F - 41.0 °F 71% 29.75 in 10.0 mi South 16.1 mph 24.2 mph N/A   Mostly Cloudy
6:15 AM 50.0 °F - 41.0 °F 71% 29.76 in 10.0 mi South 18.4 mph 24.2 mph N/A   Overcast
6:35 AM 50.0 °F - 42.8 °F 76% 29.76 in 10.0 mi South 17.3 mph - N/A   Overcast
6:55 AM 50.0 °F - 42.8 °F 76% 29.77 in 10.0 mi South 16.1 mph 24.2 mph N/A   Overcast
7:15 AM 50.0 °F - 42.8 °F 76% 29.78 in 10.0 mi SSW 21.9 mph 27.6 mph N/A   Overcast
7:35 AM 50.0 °F - 44.6 °F 82% 29.77 in 10.0 mi South 18.4 mph 27.6 mph N/A   Mostly Cloudy
7:55 AM 50.0 °F - 44.6 °F 82% 29.77 in 10.0 mi SSW 18.4 mph 24.2 mph N/A   Mostly Cloudy
8:15 AM 51.8 °F - 44.6 °F 76% 29.78 in 10.0 mi SSW 19.6 mph 25.3 mph N/A   Partly Cloudy
8:35 AM 51.8 °F - 46.4 °F 82% 29.78 in 10.0 mi SSW 21.9 mph 26.5 mph N/A   Clear
8:55 AM 51.8 °F - 46.4 °F 82% 29.79 in 10.0 mi SSW 20.7 mph 26.5 mph N/A   Clear
9:15 AM 51.8 °F - 46.4 °F 82% 29.79 in 10.0 mi SSW 18.4 mph 25.3 mph N/A   Clear
9:35 AM 51.8 °F - 46.4 °F 82% 29.80 in 10.0 mi SSW 18.4 mph 27.6 mph N/A   Clear
9:55 AM 51.8 °F - 48.2 °F 88% 29.81 in 10.0 mi SSW 18.4 mph 23.0 mph N/A   Partly Cloudy
10:15 AM 53.6 °F - 48.2 °F 82% 29.81 in 10.0 mi SW 17.3 mph 23.0 mph N/A   Partly Cloudy
10:35 AM 53.6 °F - 50.0 °F 88% 29.80 in 10.0 mi SW 18.4 mph - N/A   Clear
10:55 AM 55.4 °F - 50.0 °F 82% 29.80 in 10.0 mi SW 16.1 mph 20.7 mph N/A   Clear
11:15 AM 55.4 °F - 50.0 °F 82% 29.79 in 10.0 mi SW 16.1 mph - N/A   Clear
11:35 AM 55.4 °F - 50.0 °F 82% 29.78 in 10.0 mi SW 13.8 mph - N/A   Clear
11:55 AM 57.2 °F - 50.0 °F 77% 29.77 in 10.0 mi SW 11.5 mph - N/A   Clear
12:15 PM 59.0 °F - 50.0 °F 72% 29.76 in 10.0 mi West 10.4 mph - N/A   Clear
12:35 PM 59.0 °F - 39.2 °F 48% 29.75 in 10.0 mi WNW 13.8 mph - N/A   Clear
12:55 PM 60.8 °F - 39.2 °F 45% 29.74 in 10.0 mi West 12.7 mph - N/A   Clear
1:15 PM 60.8 °F - 39.2 °F 45% 29.74 in 10.0 mi NW 12.7 mph - N/A   Clear
1:35 PM 62.6 °F - 37.4 °F 39% 29.74 in 10.0 mi NW 12.7 mph 19.6 mph N/A   Clear
1:55 PM 62.6 °F - 37.4 °F 39% 29.74 in 10.0 mi NW 15.0 mph - N/A   Clear
2:15 PM 60.8 °F - 35.6 °F 39% 29.75 in 10.0 mi NW 15.0 mph 18.4 mph N/A   Clear
2:35 PM 59.0 °F - 37.4 °F 45% 29.76 in 10.0 mi NW 12.7 mph 19.6 mph N/A   Unknown
2:55 PM 59.0 °F - 37.4 °F 45% 29.77 in 10.0 mi WNW 13.8 mph - N/A   Unknown
3:15 PM 57.2 °F - 37.4 °F 48% 29.78 in 10.0 mi NW 12.7 mph - N/A   Unknown
3:35 PM 59.0 °F - 37.4 °F 45% 29.78 in 10.0 mi WNW 15.0 mph 21.9 mph N/A   Unknown
3:55 PM 57.2 °F - 37.4 °F 48% 29.79 in 10.0 mi WNW 15.0 mph 20.7 mph N/A   Unknown
4:15 PM 55.4 °F - 37.4 °F 51% 29.79 in 10.0 mi WNW 12.7 mph 18.4 mph N/A   Clear
4:35 PM 55.4 °F - 35.6 °F 47% 29.80 in 10.0 mi NW 15.0 mph 18.4 mph N/A   Unknown
4:55 PM 55.4 °F - 35.6 °F 47% 29.81 in 10.0 mi NW 10.4 mph - N/A   Clear
5:15 PM 53.6 °F - 37.4 °F 54% 29.82 in 10.0 mi WNW 9.2 mph - N/A   Partly Cloudy
5:35 PM 50.0 °F - 37.4 °F 62% 29.83 in 10.0 mi WNW 8.1 mph - N/A   Scattered Clouds
5:55 PM 48.2 °F - 37.4 °F 66% 29.84 in 10.0 mi WNW 8.1 mph - N/A   Partly Cloudy
6:15 PM 48.2 °F - 35.6 °F 62% 29.84 in 10.0 mi WNW 8.1 mph - N/A   Clear
6:35 PM 46.4 °F 41.9 °F 35.6 °F 66% 29.86 in 10.0 mi WNW 9.2 mph - N/A   Clear
6:55 PM 48.2 °F - 35.6 °F 62% 29.87 in 10.0 mi WNW 10.4 mph - N/A   Clear
7:15 PM 48.2 °F - 33.8 °F 58% 29.88 in 10.0 mi WNW 11.5 mph - N/A   Clear
7:35 PM 46.4 °F 41.9 °F 32.0 °F 57% 29.89 in 10.0 mi WNW 9.2 mph - N/A   Clear
7:55 PM 44.6 °F 39.7 °F 32.0 °F 61% 29.90 in 10.0 mi WNW 9.2 mph - N/A   Clear
8:15 PM 44.6 °F 39.2 °F 32.0 °F 61% 29.91 in 10.0 mi WNW 10.4 mph - N/A   Clear
8:35 PM 44.6 °F 40.2 °F 32.0 °F 61% 29.92 in 10.0 mi WNW 8.1 mph - N/A   Clear
8:55 PM 42.8 °F 37.5 °F 32.0 °F 66% 29.92 in 10.0 mi WNW 9.2 mph - N/A   Clear
9:15 PM 44.6 °F 39.2 °F 32.0 °F 61% 29.93 in 10.0 mi WNW 10.4 mph - N/A   Clear
9:35 PM 42.8 °F 37.5 °F 32.0 °F 66% 29.93 in 10.0 mi WNW 9.2 mph - N/A   Clear
9:55 PM 41.0 °F 35.2 °F 32.0 °F 70% 29.93 in 10.0 mi WNW 9.2 mph - N/A   Clear
10:15 PM 41.0 °F 35.8 °F 30.2 °F 65% 29.94 in 10.0 mi West 8.1 mph - N/A   Clear
10:35 PM 41.0 °F 37.1 °F 30.2 °F 65% 29.94 in 10.0 mi West 5.8 mph - N/A   Clear
10:55 PM 39.2 °F 35.9 °F 30.2 °F 70% 29.94 in 10.0 mi West 4.6 mph - N/A   Clear
11:15 PM 37.4 °F 32.8 °F 32.0 °F 81% 29.94 in 10.0 mi WSW 5.8 mph - N/A   Clear
11:35 PM 37.4 °F 32.8 °F 32.0 °F 81% 29.93 in 10.0 mi West 5.8 mph - N/A   Clear
11:55 PM 39.2 °F 35.0 °F 28.4 °F 65% 29.93 in 10.0 mi West 5.8 mph - N/A   Clear